Weather History for Provo, UT

Change the Weather History Date:

Wednesday, January 1, 2014

  Actual Average Record
Temperature  
Mean Temperature 26 °F -  
Max Temperature 35 °F 34 °F 53 °F (1997)
Min Temperature 17 °F 21 °F -4 °F (1991)
Degree Days  
Heating Degree Days 39    
Moisture  
Dew Point 20 °F    
Average Humidity 87    
Maximum Humidity 100    
Minimum Humidity 65    
Precipitation  
Precipitation 0.00 in - - ()
Sea Level Pressure  
Sea Level Pressure 30.33 in    
Wind  
Wind Speed 3 mph (SW)    
Max Wind Speed 9 mph    
Max Gust Speed -    
Visibility 5 miles    
Events      
Averages and records for this station are not official NWS values.
T = Trace of Precipitation, MM = Missing Value Source: NWS Daily Summary

Daily Weather History Graph

Daily Weather History Graph

Search for Another Location

Airport:

Trip Planner

Search our weather history database for the weather conditions in past years. The results will help you decide how hot, cold, wet, or windy it might be!

Date:

Astronomy

Jan. 01, 2014 Rise Set
Actual Time 7:49 AM MST 5:11 PM MST
Civil Twilight 7:18 AM MST 5:42 PM MST
Nautical Twilight 6:44 AM MST 6:16 PM MST
Astronomical Twilight 6:11 AM MST 6:49 PM MST
Moon 7:43 AM MST (1/1) 6:01 PM MST (1/1)
Length of Visible Light 10h 23m
Length of Day
9h 22m
New Moon, 0% of the Moon is Illuminated
Jan 1
New Moon
Jan 7
First Quarter
Jan 15
Full
Jan 23
Last Quarter
Jan 30
New

Hourly Weather History & Observations

Time (MST) Temp. Windchill Dew Point Humidity Pressure Visibility Wind Dir Wind Speed Gust Speed Precip Events Conditions
12:15 AM 26.6 °F 22.6 °F 24.8 °F 93% 30.23 in 5.0 mi NNE 3.5 mph - N/A   Overcast
12:35 AM 26.6 °F - 23.0 °F 86% 30.23 in 5.0 mi Calm Calm - N/A   Mostly Cloudy
12:55 AM 26.6 °F - 24.8 °F 93% 30.22 in 5.0 mi Calm Calm - N/A   Scattered Clouds
1:15 AM 24.8 °F 17.9 °F 21.2 °F 86% 30.22 in 5.0 mi SSE 5.8 mph - N/A   Mostly Cloudy
1:35 AM 24.8 °F 19.1 °F 21.2 °F 86% 30.22 in 5.0 mi South 4.6 mph - N/A   Mostly Cloudy
1:55 AM 24.8 °F - 21.2 °F 86% 30.24 in 5.0 mi Calm Calm - N/A   Partly Cloudy
2:15 AM 24.8 °F 17.9 °F 19.4 °F 80% 30.25 in 5.0 mi North 5.8 mph - N/A   Scattered Clouds
2:35 AM 24.8 °F 19.1 °F 19.4 °F 80% 30.25 in 5.0 mi West 4.6 mph - N/A   Overcast
2:55 AM 24.8 °F 17.9 °F 21.2 °F 86% 30.26 in 5.0 mi NW 5.8 mph - N/A   Overcast
3:15 AM 26.6 °F 20.0 °F 21.2 °F 80% 30.26 in 5.0 mi WNW 5.8 mph - N/A   Mostly Cloudy
3:35 AM 24.8 °F 16.9 °F 21.2 °F 86% 30.27 in 4.0 mi SSE 6.9 mph - N/A   Mostly Cloudy
3:55 AM 24.8 °F - 21.2 °F 86% 30.28 in 5.0 mi Calm Calm - N/A   Overcast
4:15 AM 23.0 °F 17.0 °F 21.2 °F 93% 30.28 in 5.0 mi South 4.6 mph - N/A   Scattered Clouds
4:35 AM 21.2 °F - 17.6 °F 86% 30.29 in 3.0 mi Calm Calm - N/A   Partly Cloudy
4:55 AM 21.2 °F 12.6 °F 17.6 °F 86% 30.29 in 3.0 mi West 6.9 mph - N/A   Clear
5:15 AM 19.4 °F - 19.4 °F 100% 30.29 in 3.0 mi Calm Calm - N/A   Clear
5:35 AM 19.4 °F 8.6 °F 17.6 °F 93% 30.30 in 3.0 mi SSE 9.2 mph - N/A   Clear
5:55 AM 21.2 °F 14.9 °F 21.2 °F 100% 30.31 in 3.0 mi South 4.6 mph - N/A   Clear
6:15 AM 19.4 °F 14.3 °F 17.6 °F 93% 30.31 in 3.0 mi South 3.5 mph - N/A   Clear
6:35 AM 19.4 °F 10.4 °F 19.4 °F 100% 30.31 in 4.0 mi SSW 6.9 mph - N/A   Clear
6:52 AM 19.4 °F 14.3 °F 17.6 °F 93% 30.32 in 7.0 mi NNE 3.5 mph - N/A   Haze
6:55 AM 19.4 °F - 17.6 °F 93% 30.32 in 3.0 mi Calm Calm - N/A   Clear
7:55 AM 17.6 °F - 17.6 °F 100% 30.34 in 6.0 mi Calm Calm - N/A   Haze
8:57 AM 19.4 °F - 19.4 °F 100% 30.37 in 6.0 mi Calm Calm - N/A   Haze
9:49 AM 24.8 °F - 21.2 °F 86% 30.38 in 4.0 mi Calm Calm - N/A   Haze
10:55 AM 26.6 °F - 21.2 °F 80% 30.39 in 4.0 mi Calm Calm - N/A   Haze
11:55 AM 28.4 °F 23.3 °F 24.8 °F 86% 30.38 in 4.0 mi WNW 4.6 mph - N/A   Haze
12:47 PM 30.2 °F 25.4 °F 24.8 °F 80% 30.36 in 5.0 mi WNW 4.6 mph - N/A   Haze
1:58 PM 32.0 °F 28.7 °F 24.8 °F 75% 30.36 in 5.0 mi WSW 3.5 mph - N/A   Haze
2:48 PM 32.0 °F - 26.6 °F 80% 30.36 in 5.0 mi Calm Calm - N/A   Haze
3:54 PM 35.6 °F 32.8 °F 24.8 °F 65% 30.37 in 8.0 mi South 3.5 mph - N/A   Haze
4:47 PM 30.2 °F - 23.0 °F 75% 30.37 in 10.0 mi Calm Calm - N/A   Haze
5:47 PM 28.4 °F - 21.2 °F 74% 30.37 in 10.0 mi Calm Calm - N/A   Haze
6:47 PM 24.8 °F - 17.6 °F 74% 30.38 in 10.0 mi Calm Calm - N/A   Haze
7:47 PM 21.2 °F - 17.6 °F 86% 30.39 in 10.0 mi Calm Calm - N/A   Haze
8:47 PM 23.0 °F - 21.2 °F 93% 30.39 in 10.0 mi Calm Calm - N/A   Haze
9:15 PM 21.2 °F - 17.6 °F 86% 30.40 in 4.0 mi Calm Calm - N/A   Clear
9:35 PM 21.2 °F - 19.4 °F 93% 30.40 in 5.0 mi Calm Calm - N/A   Clear
9:55 PM 21.2 °F - 17.6 °F 86% 30.40 in 4.0 mi Calm Calm - N/A   Clear
10:15 PM 23.0 °F - 19.4 °F 86% 30.40 in 5.0 mi Calm Calm - N/A   Clear
10:35 PM 21.2 °F - 19.4 °F 93% 30.40 in 4.0 mi Calm Calm - N/A   Clear
10:55 PM 21.2 °F - 19.4 °F 93% 30.40 in 4.0 mi Calm Calm - N/A   Clear
11:15 PM 21.2 °F - 19.4 °F 93% 30.40 in 5.0 mi Calm Calm - N/A   Clear
11:35 PM 17.6 °F 12.3 °F 15.8 °F 93% 30.40 in 3.0 mi West 3.5 mph - N/A   Clear
11:55 PM 17.6 °F 10.7 °F 14.0 °F 86% 30.40 in 5.0 mi SW 4.6 mph - N/A   Clear